Goshen, IN

6:22 PM EDT on July 24, 2017 (GMT -0400)
Goshen Municipal

Weather History for KGSH - February, 2014

Change the Weather History Date:

Monday, February 17, 2014

  Actual Average Record
Temperature  
Mean Temperature 22 °F -  
Max Temperature 28 °F 34 °F 63 °F (2017)
Min Temperature 15 °F 18 °F -9 °F (1979)
Degree Days  
Heating Degree Days 44    
Moisture  
Dew Point 17 °F    
Average Humidity 80    
Maximum Humidity 89    
Minimum Humidity 65    
Precipitation  
Precipitation 0.16 in - - ()
Sea Level Pressure  
Sea Level Pressure 29.85 in    
Wind  
Wind Speed 13 mph (ESE)    
Max Wind Speed 23 mph    
Max Gust Speed 32 mph    
Visibility 3 miles    
Events Fog , Snow    
Averages and records for this station are not official NWS values.
T = Trace of Precipitation, MM = Missing Value Source: NWS Daily Summary

Daily Weather History Graph

Daily Weather History Graph

Search for Another Location

Airport or City:

Trip Planner

Search our weather history database for the weather conditions in past years. The results will help you decide how hot, cold, wet, or windy it might be!

Date:

Astronomy

Feb. 17, 2014 Rise Set
Actual Time 7:35 AM EST 6:19 PM EST
Civil Twilight 7:07 AM EST 6:47 PM EST
Nautical Twilight 6:34 AM EST 7:20 PM EST
Astronomical Twilight 6:02 AM EST 7:52 PM EST
Moon 9:16 PM EST (2/17) 8:33 AM EST (2/17)
Length of Visible Light 11h 40m
Length of Day
10h 43m
Waning Gibbous, 93% of the Moon is Illuminated
Feb 17
Waning Gibbous
Feb 22
Last Quarter
Mar 1
New
Mar 8
First Quarter
Mar 16
Full

Hourly Weather History & Observations

Time (EST) Temp. Windchill Dew Point Humidity Pressure Visibility Wind Dir Wind Speed Gust Speed Precip Events Conditions
12:53 AM 17.1 °F 6.6 °F 10.0 °F 74% 30.32 in 7.0 mi ESE 8.1 mph - N/A   Clear
1:53 AM 16.0 °F 6.3 °F 10.0 °F 77% 30.34 in 7.0 mi ESE 6.9 mph - N/A   Clear
2:53 AM 15.1 °F 2.5 °F 9.0 °F 77% 30.33 in 7.0 mi ESE 10.4 mph - N/A   Clear
3:53 AM 15.1 °F 2.5 °F 10.0 °F 80% 30.32 in 6.0 mi SE 10.4 mph - N/A   Haze
4:53 AM 16.0 °F 2.9 °F 10.9 °F 81% 30.31 in 5.0 mi East 11.5 mph - N/A   Haze
5:53 AM 17.1 °F 4.3 °F 10.0 °F 74% 30.30 in 7.0 mi ESE 11.5 mph - N/A   Overcast
6:53 AM 16.0 °F 1.7 °F 10.0 °F 77% 30.27 in 8.0 mi ESE 13.8 mph 24.2 mph N/A   Overcast
7:53 AM 16.0 °F 2.9 °F 10.0 °F 77% 30.26 in 8.0 mi ESE 11.5 mph - N/A   Overcast
8:53 AM 17.1 °F 3.6 °F 10.0 °F 74% 30.25 in 7.0 mi ESE 12.7 mph - N/A   Overcast
9:53 AM 18.0 °F 4.2 °F 10.9 °F 74% 30.22 in 6.0 mi SE 13.8 mph - N/A   Haze
10:53 AM 19.9 °F 7.3 °F 10.9 °F 68% 30.17 in 7.0 mi SE 12.7 mph 27.6 mph N/A   Overcast
11:53 AM 21.0 °F 7.1 °F 10.9 °F 65% 30.13 in 7.0 mi SE 16.1 mph - N/A   Overcast
12:53 PM 21.0 °F 6.6 °F 12.0 °F 68% 30.05 in 5.0 mi SE 17.3 mph 28.8 mph N/A   Haze
1:53 PM 21.0 °F 5.0 °F 12.9 °F 71% 29.95 in 4.0 mi ESE 21.9 mph - N/A   Haze
2:53 PM 21.9 °F 7.8 °F 12.9 °F 68% 29.90 in 6.0 mi ESE 17.3 mph 25.3 mph N/A   Haze
3:20 PM 21.9 °F 5.8 °F 14.0 °F 72% 29.80 in 2.0 mi ESE 23.0 mph 32.2 mph N/A   Haze
3:32 PM 21.9 °F 5.8 °F 14.0 °F 72% 29.78 in 4.0 mi ESE 23.0 mph 31.1 mph N/A   Haze
3:53 PM 21.9 °F 5.8 °F 14.0 °F 72% 29.81 in 4.0 mi ESE 23.0 mph 28.8 mph N/A   Haze
4:00 PM 21.9 °F 6.5 °F 14.0 °F 72% 29.74 in 1.8 mi ESE 20.7 mph 29.9 mph 0.00 in Snow Light Snow
4:04 PM 21.9 °F 6.5 °F 15.1 °F 75% 29.74 in 0.5 mi ESE 20.7 mph 29.9 mph 0.00 in Snow Snow
4:21 PM 21.0 °F 5.7 °F 16.0 °F 81% 29.73 in 0.2 mi ESE 19.6 mph 31.1 mph 0.00 in Snow Heavy Snow
4:53 PM 21.0 °F - 18.0 °F 88% 29.74 in 0.2 mi North - - 0.03 in Fog , Snow Snow
5:53 PM 21.9 °F - 18.0 °F 85% 29.73 in 0.2 mi North - - 0.05 in Fog , Snow Light Snow
6:27 PM 21.9 °F - 19.0 °F 89% 29.69 in 1.0 mi North - - 0.01 in Snow Light Snow
6:37 PM 23.0 °F - 18.0 °F 81% 29.70 in 0.5 mi North - - 0.02 in Snow Snow
6:53 PM 23.0 °F - 19.0 °F 85% 29.74 in 0.5 mi North - - 0.03 in Fog , Snow Snow
7:11 PM 23.0 °F - 19.0 °F 85% 29.69 in 1.0 mi North - - 0.01 in Snow Light Snow
7:20 PM 24.1 °F - 19.0 °F 81% 29.68 in 1.5 mi North - - 0.01 in Snow Light Snow
7:39 PM 24.1 °F - 19.9 °F 84% 29.67 in 2.5 mi North - - 0.02 in Snow Light Snow
7:53 PM 24.1 °F - 19.9 °F 84% 29.70 in 4.0 mi North - - 0.02 in Snow Light Snow
8:01 PM 24.1 °F - 19.9 °F 84% 29.66 in 1.8 mi North - - 0.00 in Snow Light Snow
8:16 PM 24.1 °F - 19.9 °F 84% 29.65 in 1.0 mi North - - 0.01 in Snow Light Snow
8:33 PM 24.1 °F - 21.0 °F 88% 29.65 in 1.2 mi North - - 0.01 in Snow Light Snow
8:40 PM 24.1 °F - 21.0 °F 88% 29.65 in 0.8 mi North - - 0.01 in Snow Light Snow
8:51 PM 24.8 °F - 21.2 °F 86% 29.65 in 0.5 mi North - - 0.02 in Fog , Snow Snow
8:53 PM 24.1 °F - 21.0 °F 88% 29.69 in 0.8 mi North - - 0.02 in Snow Light Snow
9:11 PM 24.1 °F - 21.0 °F 88% 29.65 in 1.0 mi North - - 0.01 in Snow Light Snow
9:22 PM 25.0 °F - 21.9 °F 88% 29.65 in 1.0 mi North - - 0.01 in Snow Light Snow
9:26 PM 25.0 °F - 21.9 °F 88% 29.65 in 0.8 mi North - - 0.01 in Snow Light Snow
9:29 PM 26.1 °F - 21.9 °F 84% 29.65 in 0.8 mi North - - 0.01 in Snow Light Snow
9:32 PM 26.1 °F - 23.0 °F 88% 29.65 in 0.8 mi North - - 0.01 in Snow Light Snow
9:38 PM 26.1 °F - 23.0 °F 88% 29.65 in 1.0 mi North - - 0.01 in Snow Light Snow
9:45 PM 27.0 °F - 23.0 °F 85% 29.66 in 1.5 mi North - - 0.01 in Snow Light Snow
9:47 PM 26.6 °F - 23.0 °F 86% 29.66 in 1.5 mi North - - 0.01 in Snow Light Snow
9:53 PM 27.0 °F - 24.1 °F 89% 29.69 in 1.5 mi North - - 0.01 in Snow Light Snow
10:05 PM 28.0 °F - 24.1 °F 85% 29.66 in 2.0 mi North - - 0.00 in Snow Light Snow
10:14 PM 28.0 °F - 24.1 °F 85% 29.66 in 3.0 mi North - - 0.00 in   Overcast
10:53 PM 28.0 °F - 23.0 °F 81% 29.71 in 4.0 mi North - - 0.00 in   Haze
11:35 PM 28.0 °F - 21.9 °F 78% 29.69 in 4.0 mi North - - N/A   Haze
11:53 PM 28.0 °F - 21.9 °F 78% 29.73 in 5.0 mi North - - N/A   Haze